User: anonymous
Location: Caltech
(34.1382°N, 118.1253°W)
Time: 14:24:32
(UTC-07:00)
Language:

TMSAT-1 - Orbit

View from above orbital plane
View from above orbital plane
View from above satellite
View from above satellite

Ground track
Ground track

The orbit data is extracted from the following two-line orbital elements,

1 25396U 98043C   14106.48981862  .00000154  00000-0  85125-4 0  8294
2 25396 098.4320 070.7647 0003871 104.0060 007.4332 14.24150357819373
Epoch (UTC): 16 April 2014 11:45:20
Eccentricity: 0.0003871
inclination: 98.4320°
perigee height: 808 km
apogee height: 814 km
right ascension of ascending node: 70.7647°
argument of perigee: 104.0060°
revolutions per day: 14.24150357
mean anomaly at epoch: 7.4332°
orbit number at epoch: 81937

The dashed part of the orbit path shows where the satellite is in the earth's shadow,  

DLR